This demonstration page uses our WeatherBlox Daily Observations layout. Learn more.

Left ArrowRight Arrow

Hourly Observations for July 8, 2019

Temp ( °F °C ) Dew Point ( °F °C ) Humidity (%) Winds ( mph kmh ) Pressure ( in mb ) Visibility ( mi km ) Precip ( " mm )
12:53 am 00:53 Mostly Clear 71 21.7 68 20 90 90 N 3 6 29.96 1015 9 14 N/A
1:53 am 01:53 Clear 70 21.1 66 18.9 87 87 NNW 3 6 29.95 1014 10 16 N/A
2:53 am 02:53 Clear 70 21.1 66 18.9 87 87 NNW 3 6 29.95 1014 10 16 N/A
3:53 am 03:53 Clear 69 20.6 65 18.3 87 87 N N/A 29.95 1014 10 16 N/A
4:53 am 04:53 Clear 69 20.6 64 17.8 84 84 N 3 6 29.95 1014 10 16 N/A
5:53 am 05:53 Clear 68 20 63 17.2 84 84 NNE 5 7 29.96 1014 10 16 N/A
6:53 am 06:53 Sunny 68 20 63 17.2 84 84 N N/A 29.98 1015 10 16 N/A
7:53 am 07:53 Sunny 70 21.1 63 17.2 79 79 NNE 5 7 30.00 1016 10 16 N/A
8:53 am 08:53 Sunny 73 22.8 64 17.8 74 74 NNE 8 13 30.01 1016 10 16 N/A
9:53 am 09:53 Sunny 75 23.9 65 18.3 71 71 NE 8 13 30.01 1016 10 16 N/A
10:53 am 10:53 Sunny 78 25.6 65 18.3 64 64 VRB 7 11 30.01 1016 10 16 N/A
11:53 am 11:53 Sunny 81 27.2 66 18.9 61 61 NE 7 11 30.01 1016 10 16 N/A
12:53 pm 12:53 Mostly Sunny 83 28.3 66 18.9 57 57 N 9 15 30.01 1016 10 16 N/A
1:10 pm 13:10 Hazy 83 28.3 66 18.9 57 57 NNE 8 13 29.99 1015 2 3 N/A
1:25 pm 13:25 Partly Cloudy 83 28.3 65 18.3 55 55 N 3 6 29.99 1015 10 16 N/A
1:53 pm 13:53 Mostly Sunny 84 28.9 65 18.3 53 53 VRB 7 11 30.00 1016 10 16 N/A
2:53 pm 14:53 Mostly Sunny 84 28.9 64 17.8 51 51 NE 5 7 29.98 1015 10 16 N/A
3:53 pm 15:53 Sunny 86 30 64 17.8 48 48 ENE 6 9 29.98 1015 10 16 N/A
4:53 pm 16:53 Mostly Sunny 85 29.4 64 17.8 50 50 NNE 8 13 29.97 1015 10 16 N/A
5:53 pm 17:53 Sunny 87 30.6 64 17.8 46 46 VRB 7 11 29.97 1015 10 16 N/A
6:53 pm 18:53 Mostly Sunny 85 29.4 64 17.8 50 50 N 8 13 29.96 1015 10 16 N/A
7:53 pm 19:53 Sunny 83 28.3 64 17.8 53 53 N 6 9 29.96 1015 10 16 N/A
8:53 pm 20:53 Sunny 77 25 67 19.4 71 71 N 3 6 29.96 1015 10 16 N/A
9:53 pm 21:53 Clear 72 22.2 67 19.4 84 84 N N/A 29.98 1015 10 16 N/A
10:53 pm 22:53 Clear 70 21.1 67 19.4 90 90 N N/A 29.99 1016 10 16 N/A
11:53 pm 23:53 Clear 74 23.3 64 17.8 71 71 ENE 9 15 29.99 1016 10 16 N/A

Powered by AerisWeather